SL-16 DEB, 24302

Orbit data source: Space-Track

SL-16 DEB, 24302 is space debris in LEO originally from a launch on Wed, 04 Sep 1996 UTC launched from the Tyuratam Missile And Space Complex (TTMTR). Debris objects in space refer to the collection of defunct objects orbiting the Earth. Examples of debris include non-operational satellites, rocket bodies, and fragments generated from explosions, collisions, or faulty payload assembly.

Loading next visibility...
Identifier
24302, 1996-051F
Orbit
LEO
Country
Flag of CISCIS
Related business
Manufacturer
Yuzhnoe
Mission
Spacecraft
Bus & Motor
SEP MOTOR COVER, Unknown motor
Mass
~0 kg wet, ~1 kg dry
Launch date (UTC)
1996-09-04 (29 years ago)
Launch vehicle
Unknown
Launch site
Tyuratam Missile And Space Complex (TTMTR)
Object type
Payload
Rocket body
Debris
Shape & HBR
Unknown shape, 0.1 m
Radar Cross Section
Small (<0.1 m²)

Expand to show TLE details & history
Last TLE update: 12 hours ago

TLE from 12 hours ago
0 SL-16 DEB
1 24302U 96051F   25309.30546931  .00000058  00000-0  97031-4 0  9999
2 24302  70.9840 263.1487 0207881 202.1548 280.6471 13.71122968458904
Epoch: 2025-11-05T07:19Z
TLE epoch observation values (Epoch: 2025-11-05T07:19:52.548Z)
Latitude
54.69991°
Longitude
-100.56165°
Altitude
978.8 km
Speed
7.38 km/s
True Right ascension
03h 36m 44s
True Declination
54° 32' 33"
Sunlit
Object was in full shadow at epoch
Visualization orbit readout
Latitude
Unknown
Longitude
Unknown
Altitude
Unknown
Speed
Unknown
Apparent Right ascension
Unknown
Apparent Declination
Unknown
Sunlit
N/A
Visualization observer readout
Local Sidereal Time
15:05:54
Azimuth
Unknown
Elevation
Unknown
Doppler factor
Unknown
Orbital elements
Apogee altitude
1,146.753 km
Perigee altitude
840.268 km
Semi-major axis
7,371.648 km
Eccentricity
0.02079
Inclination
70.984°
RAAN
263.1487°
Arg. of periapsis
202.1548°
True anomaly
278.29534°
Mean anomaly
280.6471°
Eccentric anomaly
279.47227°
Mean motion
3.42923 °/min
Orbital period
104.98 mins
BSTAR
0.000097031
Loading maneuver chart data...
Computing Atmospheric mass density...
Loading historical data...
Loading historical data...
Loading historical data...
Loading historical data...
Loading historical data...
Loading historical data...
Loading historical data...

Documentation

Showing up to 5 results
|